(1998 DK36) |
Classification: Atira [NEO] SPK-ID: 3184472 |
[ hide orbit diagram ]
For accurate long-term ephemerides, please instead use our Horizons system.This orbit viewer was implemented using two-body methods, and hence should not be used for determining accurate long-term trajectories (over several years or decades) or planetary encounter circumstances.
Orbital Elements at Epoch 2450868.5 (1998-Feb-24.0) TDB
Reference: JPL 13 (heliocentric ecliptic J2000)
Element | Value | Uncertainty (1-sigma) | Units |
e | .4160165290189738 | 0.076619 | |
a | .6922572378564286 | 0.03736 | au |
q | .404266784575135 | 0.074851 | au |
i | 2.017520293212931 | 0.34558 | deg |
node | 151.461719724384 | 0.38829 | deg |
peri | 180.0427079366329 | 1.2105 | deg |
M | 183.252226967682 | 2.7547 | deg |
tp | 2450971.788301160536 (1998-Jun-07.28830116) | 9.75 | TDB |
period | 210.3776912142139 0.58 | 17.031 0.04663 | d yr |
n | 1.711208055959866 | 0.13853 | deg/d |
Q | .9802476911377221 | 0.052902 | au |
|
| | Orbit Determination Parameters
Additional Information
|
[ show covariance matrix ]
Physical Parameter Table
Parameter |
Symbol |
Value |
Units |
Sigma |
Reference |
Notes |
absolute magnitude |
H |
25.0 |
|
n/a |
MPO166084 |
|
|
[ show close-approach data ]
|